Waarnemingen

Advertentie
Mijn weer
Jerez de los Caballeros, Spanje (8337): temperatuur & dauwpunt: 19.02.2020 08:00:00 - 25.02.2020 08:00:00 (CET)Jerez de los Caballeros, Spanje (8337): windsnelheid & windstoten: 19.02.2020 08:00:00 - 25.02.2020 08:00:00 (CET)Jerez de los Caballeros, Spanje (8337): windrichting: 19.02.2020 08:00:00 - 25.02.2020 08:00:00 (CET)Jerez de los Caballeros, Spanje (8337): luchtdruk: 19.02.2020 08:00:00 - 25.02.2020 08:00:00 (CET)Jerez de los Caballeros, Spanje (8337): zicht: 19.02.2020 08:00:00 - 25.02.2020 08:00:00 (CET)Jerez de los Caballeros, Spanje (8337): Zonneschijnduur: 19.02.2020 08:00:00 - 25.02.2020 08:00:00 (CET)Jerez de los Caballeros, Spanje (8337): neerslag: 19.02.2020 08:00:00 - 25.02.2020 08:00:00 (CET)
Datum & Tijd tt [°C] td [°C] ff [km/u] ff [kn] fx [km/u] fx [kn] dd ppp [hPa] vv [km] sd [min] rr [mm]
25.02.2020 08:00:00 - - - - - - - - - - -
25.02.2020 07:00:00 5,5 3,6 10 5 14 7 WZW 1025,7 13 0 -
25.02.2020 06:00:00 5,3 3,0 9 5 16 9 ZW 1026,0 14 0 0,0
25.02.2020 05:00:00 7,7 4,6 6 3 10 5 W 1025,1 17 0 0,0
25.02.2020 04:00:00 8,7 5,1 6 3 12 6 W 1025,0 20 0 0,0
25.02.2020 03:00:00 8,6 4,5 4 2 10 6 W 1025,7 20 0 0,0
25.02.2020 02:00:00 10,6 4,5 8 5 13 7 WNW 1026,1 20 0 0,0
25.02.2020 01:00:00 10,6 3,6 5 3 6 3 W 1026,1 20 0 -
25.02.2020 00:00:00 11,9 3,4 1 1 5 3 WZW 1026,1 20 0 0,0
24.02.2020 23:00:00 12,2 3,4 1 1 8 4 ZO 1026,1 20 0 0,0
24.02.2020 22:00:00 13,2 3,0 3 2 5 3 NNO 1026,1 20 0 0,0
24.02.2020 21:00:00 15,1 3,6 2 1 19 10 ZZO 1025,5 20 0 0,0
24.02.2020 20:00:00 17,8 2,1 16 8 22 12 NW 1024,7 20 0 0,0
24.02.2020 19:00:00 18,8 0,4 15 8 24 13 NW 1024,0 20 56 -
24.02.2020 18:00:00 20,9 -1,0 17 9 25 14 NW 1023,8 20 60 0,0
24.02.2020 17:00:00 21,6 1,3 12 6 26 14 WNW 1023,8 20 60 0,0
24.02.2020 16:00:00 22,4 4,5 17 9 27 15 W 1024,2 20 60 0,0
24.02.2020 15:00:00 23,1 5,0 14 8 26 14 WZW 1024,9 20 60 0,0
24.02.2020 14:00:00 22,8 0,6 6 3 12 7 ZZW 1026,1 20 60 0,0
24.02.2020 13:00:00 20,3 6,5 5 3 8 4 ZW 1027,4 20 60 -
24.02.2020 12:00:00 15,6 6,1 4 2 8 4 O 1028,7 20 60 0,0
24.02.2020 11:00:00 11,4 3,9 5 3 8 5 O 1029,8 20 60 0,0
24.02.2020 10:00:00 7,3 2,7 4 2 8 5 O 1030,6 20 60 0,0
24.02.2020 09:00:00 3,7 1,1 5 3 9 5 OZO 1030,7 20 51 0,0
24.02.2020 08:00:00 4,6 1,3 3 2 6 3 NO 1030,3 20 0 0,0
24.02.2020 07:00:00 3,8 0,6 4 2 7 4 ZZO 1030,5 20 0 -
24.02.2020 06:00:00 4,3 1,1 4 2 8 5 ZZW 1030,3 20 0 0,0
24.02.2020 05:00:00 4,8 1,1 6 4 8 5 OZO 1030,2 20 0 0,0
24.02.2020 04:00:00 6,1 1,9 5 3 9 5 ZZW 1030,4 20 0 0,0
24.02.2020 03:00:00 6,1 2,1 6 3 13 7 O 1030,5 20 0 0,0
24.02.2020 02:00:00 7,8 2,3 8 5 13 7 O 1030,5 20 0 0,0
24.02.2020 01:00:00 9,1 2,5 7 4 10 5 OZO 1030,7 20 0 -
24.02.2020 00:00:00 11,0 2,1 4 2 12 6 ZZW 1030,6 20 0 0,0
23.02.2020 23:00:00 12,6 1,9 8 4 16 9 O 1030,1 20 0 0,0
23.02.2020 22:00:00 14,8 1,1 5 3 16 8 ZO 1029,8 20 0 0,0
23.02.2020 21:00:00 16,6 0,6 10 5 16 9 ONO 1029,2 20 0 0,0
23.02.2020 20:00:00 18,8 -0,7 9 5 15 8 ONO 1028,9 20 0 0,0
23.02.2020 19:00:00 21,1 -1,0 6 4 12 7 ONO 1028,2 20 57 -
23.02.2020 18:00:00 22,4 0,2 11 6 21 11 ONO 1028,0 20 60 0,0
23.02.2020 17:00:00 23,0 -4,2 16 9 28 15 ONO 1027,9 20 60 0,0
23.02.2020 16:00:00 23,9 -1,2 11 6 22 12 ONO 1028,0 20 60 0,0
23.02.2020 15:00:00 23,4 1,1 12 7 24 13 ONO 1028,7 20 60 0,0
23.02.2020 14:00:00 22,4 1,5 13 7 19 10 NO 1029,7 20 60 0,0
23.02.2020 13:00:00 21,2 5,5 10 5 19 10 O 1030,8 20 60 -
23.02.2020 12:00:00 18,8 5,3 16 9 22 12 O 1031,4 20 60 0,0
23.02.2020 11:00:00 15,9 3,4 16 9 22 12 ONO 1032,1 9 60 0,0
23.02.2020 10:00:00 10,5 3,9 15 8 18 10 O 1033,0 16 60 0,0
23.02.2020 09:00:00 6,5 2,7 6 3 11 6 O 1033,3 20 51 0,0
23.02.2020 08:00:00 4,9 1,7 6 3 9 5 ZO 1033,1 20 0 0,0
23.02.2020 07:00:00 5,9 1,7 8 4 16 8 O 1032,6 20 0 -
23.02.2020 06:00:00 6,9 2,5 12 7 19 10 O 1031,9 20 0 0,0
23.02.2020 05:00:00 7,0 2,1 8 4 13 7 O 1031,8 20 0 0,0
23.02.2020 04:00:00 8,1 2,7 6 4 15 8 ONO 1031,8 20 0 0,0
23.02.2020 03:00:00 8,4 3,0 11 6 17 9 O 1031,9 20 0 0,0
23.02.2020 02:00:00 9,6 2,9 5 3 16 9 ZZO 1031,9 20 0 0,0
23.02.2020 01:00:00 12,6 3,0 11 6 16 9 ONO 1031,3 20 0 -
23.02.2020 00:00:00 13,3 3,0 11 6 16 8 ONO 1031,3 20 0 0,0
22.02.2020 23:00:00 14,9 2,5 6 3 15 8 ONO 1031,1 20 0 0,0
22.02.2020 22:00:00 14,9 3,0 11 6 18 10 ONO 1030,9 20 0 0,0
22.02.2020 21:00:00 16,2 3,2 13 7 17 9 ONO 1030,2 20 0 0,0
22.02.2020 20:00:00 18,1 3,2 11 6 20 11 ONO 1029,6 20 0 0,0
22.02.2020 19:00:00 20,0 0,4 13 7 19 10 ONO 1028,8 20 55 -
22.02.2020 18:00:00 22,3 1,3 6 3 13 7 ONO 1028,2 20 60 0,0
22.02.2020 17:00:00 23,0 1,3 9 5 21 11 O 1028,2 20 60 0,0
22.02.2020 16:00:00 22,9 -0,7 20 11 27 14 NO 1028,3 20 60 0,0
22.02.2020 15:00:00 22,6 1,1 20 11 29 16 ONO 1028,5 20 60 0,0
22.02.2020 14:00:00 21,3 3,0 18 10 31 17 ONO 1029,3 20 60 0,0
22.02.2020 13:00:00 19,9 3,6 23 12 32 17 ONO 1030,2 20 60 -
22.02.2020 12:00:00 17,0 5,0 16 9 23 12 O 1031,2 18 60 0,0
22.02.2020 11:00:00 13,6 5,8 11 6 18 10 ONO 1031,7 20 60 0,0
22.02.2020 10:00:00 10,2 6,4 9 5 15 8 O 1031,9 20 60 0,0
22.02.2020 09:00:00 8,4 5,3 10 5 17 9 O 1031,6 15 48 0,0
22.02.2020 08:00:00 5,9 3,9 9 5 15 8 O 1031,6 16 0 0,0
22.02.2020 07:00:00 5,6 3,4 5 3 12 7 O 1031,0 20 0 -
22.02.2020 06:00:00 6,3 3,6 10 5 14 7 O 1030,4 20 0 0,0
22.02.2020 05:00:00 7,3 4,1 11 6 16 9 O 1030,0 11 0 0,0
22.02.2020 04:00:00 7,2 3,8 11 6 16 8 O 1030,0 20 0 0,0
22.02.2020 03:00:00 7,7 3,8 2 1 16 9 ZZO 1030,2 20 0 0,0
22.02.2020 02:00:00 10,3 5,1 14 7 16 9 ONO 1029,7 20 0 0,0
22.02.2020 01:00:00 11,8 4,3 7 4 16 9 O 1029,7 20 0 -
22.02.2020 00:00:00 11,9 4,3 10 5 13 7 NO 1029,5 20 0 0,0
21.02.2020 23:00:00 13,0 5,0 6 4 13 7 O 1029,1 20 0 0,0
21.02.2020 22:00:00 14,7 5,0 10 5 18 10 ONO 1028,4 20 0 0,0
21.02.2020 21:00:00 15,7 5,9 7 4 18 10 ZO 1027,5 20 0 0,0
21.02.2020 20:00:00 17,6 5,1 9 5 15 8 NO 1026,6 20 0 0,0
21.02.2020 19:00:00 19,5 5,1 6 3 16 9 ONO 1025,8 20 53 -
21.02.2020 18:00:00 20,4 5,6 11 6 18 10 O 1025,3 20 60 0,0
21.02.2020 17:00:00 21,1 5,8 15 8 24 13 O 1025,2 20 60 0,0
21.02.2020 16:00:00 21,0 5,0 20 11 27 15 O 1025,1 20 60 0,0
21.02.2020 15:00:00 20,7 5,5 19 10 29 16 ONO 1025,6 20 60 0,0
21.02.2020 14:00:00 20,0 5,9 21 11 32 17 ONO 1025,9 20 60 0,0
21.02.2020 13:00:00 18,1 7,8 16 8 23 13 ONO 1026,9 20 60 -
21.02.2020 12:00:00 16,0 6,7 21 11 31 17 ONO 1027,5 20 60 0,0
21.02.2020 11:00:00 13,9 5,3 25 13 31 17 ONO 1027,3 20 60 0,0
21.02.2020 10:00:00 10,1 6,2 11 6 20 11 O 1028,0 20 60 0,0
21.02.2020 09:00:00 7,8 4,3 13 7 20 11 O 1027,7 20 42 0,0
21.02.2020 08:00:00 6,3 4,1 9 5 16 9 ONO 1027,5 20 0 0,0
21.02.2020 07:00:00 6,2 3,9 6 4 9 5 ONO 1027,0 14 0 -
21.02.2020 06:00:00 6,6 4,1 7 4 16 9 O 1026,3 18 0 0,0
21.02.2020 05:00:00 7,8 5,0 14 8 18 10 O 1025,7 20 0 0,0
21.02.2020 04:00:00 7,9 4,5 11 6 17 9 O 1025,8 13 0 0,0
21.02.2020 03:00:00 9,1 5,5 12 6 20 11 O 1025,4 20 0 0,0
21.02.2020 02:00:00 9,2 5,6 12 6 23 12 O 1025,4 20 0 0,0
21.02.2020 01:00:00 11,6 5,5 12 7 23 12 ONO 1025,1 20 0 -
21.02.2020 00:00:00 12,1 5,8 16 9 21 11 NO 1024,7 20 0 0,0
20.02.2020 23:00:00 12,2 6,4 16 9 20 11 ONO 1024,3 20 0 0,0
20.02.2020 22:00:00 12,4 6,4 16 9 18 10 ONO 1024,2 20 0 0,0
20.02.2020 21:00:00 13,1 6,4 14 8 35 19 O 1023,8 20 0 0,0
20.02.2020 20:00:00 15,0 6,5 26 14 36 19 NO 1022,8 20 0 0,0
20.02.2020 19:00:00 15,7 6,7 22 12 34 18 NO 1022,3 20 46 -
20.02.2020 18:00:00 17,0 7,1 21 11 35 19 NNO 1021,8 20 59 0,0
20.02.2020 17:00:00 18,2 5,8 22 12 31 17 ONO 1021,4 20 60 0,0
20.02.2020 16:00:00 18,5 6,4 20 11 34 19 O 1021,4 20 60 0,0
20.02.2020 15:00:00 18,3 6,5 22 12 36 20 O 1021,4 20 60 0,0
20.02.2020 14:00:00 17,2 5,1 30 16 42 23 ONO 1022,1 20 60 0,0
20.02.2020 13:00:00 16,4 6,8 16 8 27 15 ONO 1023,1 20 60 -
20.02.2020 12:00:00 14,5 6,8 21 12 29 16 ONO 1023,8 20 60 0,0
20.02.2020 11:00:00 13,0 6,8 15 8 22 12 O 1024,3 20 60 0,0
20.02.2020 10:00:00 9,5 6,4 7 4 13 7 O 1025,0 19 60 0,0
20.02.2020 09:00:00 6,5 4,5 8 5 13 7 O 1025,1 13 45 0,0
20.02.2020 08:00:00 5,5 3,8 5 3 16 9 ZO 1025,1 11 0 0,0
20.02.2020 07:00:00 5,0 3,0 10 5 13 7 OZO 1025,3 13 0 -
20.02.2020 06:00:00 6,9 4,3 9 5 12 7 ONO 1025,2 15 0 0,0
20.02.2020 05:00:00 6,6 3,8 4 2 10 6 ONO 1025,6 20 0 0,0
20.02.2020 04:00:00 7,4 4,1 6 3 18 10 O 1025,9 20 0 0,0
20.02.2020 03:00:00 6,1 3,4 11 6 15 8 OZO 1026,5 20 0 0,0
20.02.2020 02:00:00 8,6 3,8 6 3 13 7 O 1026,5 12 0 0,0
20.02.2020 01:00:00 10,8 4,5 6 4 14 7 ONO 1026,6 20 0 -
20.02.2020 00:00:00 11,0 4,5 9 5 18 10 ONO 1027,0 20 0 0,0
19.02.2020 23:00:00 11,4 4,6 14 8 19 11 ONO 1027,1 20 0 0,0
19.02.2020 22:00:00 12,0 4,5 15 8 21 12 O 1027,2 20 0 0,0
19.02.2020 21:00:00 12,7 4,5 11 6 18 10 O 1027,4 20 0 0,0
19.02.2020 20:00:00 13,8 5,0 10 5 31 17 O 1027,2 20 0 0,0
19.02.2020 19:00:00 15,1 5,0 22 12 35 19 NO 1026,7 20 46 -
19.02.2020 18:00:00 16,6 5,8 25 14 34 18 NO 1026,4 20 60 0,0
19.02.2020 17:00:00 17,5 6,1 22 12 34 18 NO 1026,5 20 60 0,0
19.02.2020 16:00:00 18,0 6,8 22 12 31 17 NNO 1026,7 20 60 0,0
19.02.2020 15:00:00 18,0 6,8 19 10 33 18 NO 1027,3 20 60 0,0
19.02.2020 14:00:00 17,5 8,4 23 13 30 16 ONO 1028,4 20 60 0,0
19.02.2020 13:00:00 16,8 8,8 19 11 29 16 ONO 1029,4 20 60 -
19.02.2020 12:00:00 15,1 8,5 19 10 27 15 O 1030,1 20 60 0,0
19.02.2020 11:00:00 12,5 7,8 18 10 23 12 O 1030,8 20 60 0,0
19.02.2020 10:00:00 8,6 5,1 13 7 18 10 O 1031,5 20 60 0,0
19.02.2020 09:00:00 7,1 4,1 10 5 21 12 O 1031,4 20 39 0,0
19.02.2020 08:00:00 8,4 4,3 16 9 23 13 O 1030,4 8 0 0,0

tt = temperatuur
td = dauwpunt
ff = windsnelheid
fx = windstoten
dd = windrichting
ppp = luchtdruk
vv = zicht
sd = Zonneschijnduur
rr = neerslag

Weerstations in de omgeving